Year,Month,Day,Hour,Minute,Value (Times are PST for temperature in C)
2020,12,09,09,36,5.40
2020,12,09,09,37,5.50
2020,12,09,09,38,5.50
2020,12,09,09,39,5.60
2020,12,09,09,40,5.60
2020,12,09,09,41,5.70
2020,12,09,09,42,5.70
2020,12,09,09,43,5.80
2020,12,09,09,44,5.80
2020,12,09,09,45,5.90
2020,12,09,09,46,5.90
2020,12,09,09,47,5.90
2020,12,09,09,48,5.90
2020,12,09,09,49,6.00
2020,12,09,09,50,6.10
2020,12,09,09,51,6.10
2020,12,09,09,52,6.10
2020,12,09,09,53,6.20
2020,12,09,09,54,6.20
2020,12,09,09,55,6.20
2020,12,09,09,56,6.30
2020,12,09,09,57,6.30
2020,12,09,09,58,6.40
2020,12,09,09,59,6.50
2020,12,09,10,00,6.50
2020,12,09,10,01,6.60
2020,12,09,10,02,6.60
2020,12,09,10,03,6.60
2020,12,09,10,04,6.60
2020,12,09,10,05,6.70
2020,12,09,10,06,6.70
2020,12,09,10,07,6.80
2020,12,09,10,08,6.80
2020,12,09,10,09,6.80
2020,12,09,10,10,6.90
2020,12,09,10,11,6.90
2020,12,09,10,12,6.90
2020,12,09,10,13,7.00
2020,12,09,10,14,7.00
2020,12,09,10,15,7.00
2020,12,09,10,16,7.10
2020,12,09,10,17,7.10
2020,12,09,10,18,7.10
2020,12,09,10,19,7.20
2020,12,09,10,20,7.20
2020,12,09,10,21,7.30
2020,12,09,10,22,7.30
2020,12,09,10,23,7.30
2020,12,09,10,24,7.40
2020,12,09,10,25,7.40
2020,12,09,10,26,7.40
2020,12,09,10,27,7.40
2020,12,09,10,28,7.40
2020,12,09,10,29,7.50
2020,12,09,10,30,7.50
2020,12,09,10,31,7.50
2020,12,09,10,32,7.60
2020,12,09,10,33,7.60
2020,12,09,10,34,7.60
2020,12,09,10,35,7.70
2020,12,09,10,36,7.70
2020,12,09,10,37,7.70
2020,12,09,10,38,7.80
2020,12,09,10,39,7.80
2020,12,09,10,40,7.90
2020,12,09,10,41,7.90
2020,12,09,10,42,7.90
2020,12,09,10,43,7.90
2020,12,09,10,44,7.90
2020,12,09,10,45,7.90
2020,12,09,10,46,7.90
2020,12,09,10,47,7.90
2020,12,09,10,48,7.90
2020,12,09,10,49,7.90
2020,12,09,10,50,7.90
2020,12,09,10,51,8.00
2020,12,09,10,52,7.90
2020,12,09,10,53,7.90
2020,12,09,10,54,7.80
2020,12,09,10,55,7.80
2020,12,09,10,56,7.70
2020,12,09,10,57,7.70
2020,12,09,10,58,7.60
2020,12,09,10,59,7.60
2020,12,09,11,00,7.70
2020,12,09,11,01,7.70
2020,12,09,11,02,7.70
2020,12,09,11,03,7.80
2020,12,09,11,04,7.80
2020,12,09,11,05,7.80
2020,12,09,11,06,7.90
2020,12,09,11,07,8.00
2020,12,09,11,08,8.10
2020,12,09,11,09,8.10
2020,12,09,11,10,8.20
2020,12,09,11,11,8.20
2020,12,09,11,12,8.20
2020,12,09,11,13,8.30
2020,12,09,11,14,8.30
2020,12,09,11,15,8.30
2020,12,09,11,16,8.30
2020,12,09,11,17,8.30
2020,12,09,11,18,8.30
2020,12,09,11,19,8.30
2020,12,09,11,20,8.30
2020,12,09,11,21,8.30
2020,12,09,11,22,8.20
2020,12,09,11,23,8.20
2020,12,09,11,24,8.20
2020,12,09,11,25,8.20
2020,12,09,11,26,8.30
2020,12,09,11,27,8.30
2020,12,09,11,28,8.30
2020,12,09,11,29,8.30
2020,12,09,11,30,8.30
2020,12,09,11,31,8.40
2020,12,09,11,32,8.40
2020,12,09,11,33,8.40
2020,12,09,11,34,8.50
2020,12,09,11,35,8.50
2020,12,09,11,36,8.60
2020,12,09,11,37,8.60
2020,12,09,11,38,8.70
2020,12,09,11,39,8.70
2020,12,09,11,40,8.70
2020,12,09,11,41,8.80
2020,12,09,11,42,8.80
2020,12,09,11,43,8.80
2020,12,09,11,44,8.80
2020,12,09,11,45,8.80
2020,12,09,11,46,8.90
2020,12,09,11,47,8.80
2020,12,09,11,48,8.90
2020,12,09,11,49,8.80
2020,12,09,11,50,8.90
2020,12,09,11,51,8.90
2020,12,09,11,52,8.90
2020,12,09,11,53,8.90
2020,12,09,11,54,8.90
2020,12,09,11,55,8.90
2020,12,09,11,56,8.90
2020,12,09,11,57,8.90
2020,12,09,11,58,8.90
2020,12,09,11,59,8.90
2020,12,09,12,00,8.90
2020,12,09,12,01,8.90
2020,12,09,12,02,8.90
2020,12,09,12,03,8.90
2020,12,09,12,04,8.90
2020,12,09,12,05,8.90
2020,12,09,12,06,8.90
2020,12,09,12,07,8.80
2020,12,09,12,08,8.90
2020,12,09,12,09,8.90
2020,12,09,12,10,8.90
2020,12,09,12,11,8.90
2020,12,09,12,12,8.90
2020,12,09,12,13,8.90
2020,12,09,12,14,8.90
2020,12,09,12,15,8.90
2020,12,09,12,16,8.80
2020,12,09,12,17,8.80
2020,12,09,12,18,8.80
2020,12,09,12,19,8.80
2020,12,09,12,20,8.80
2020,12,09,12,21,8.80
2020,12,09,12,22,8.70
2020,12,09,12,23,8.70
2020,12,09,12,24,8.70
2020,12,09,12,25,8.80
2020,12,09,12,26,8.80
2020,12,09,12,27,8.70
2020,12,09,12,28,8.80
2020,12,09,12,29,8.80
2020,12,09,12,30,8.80
2020,12,09,12,31,8.80
2020,12,09,12,32,8.80
2020,12,09,12,33,8.80
2020,12,09,12,34,8.80
2020,12,09,12,35,8.80
2020,12,09,12,36,8.80
2020,12,09,12,37,8.80
2020,12,09,12,38,8.90
2020,12,09,12,39,8.90
2020,12,09,12,40,8.90
2020,12,09,12,41,8.90
2020,12,09,12,42,8.90
2020,12,09,12,43,9.00
2020,12,09,12,44,9.00
2020,12,09,12,45,9.00
2020,12,09,12,46,9.10
2020,12,09,12,47,9.10
2020,12,09,12,48,9.10
2020,12,09,12,49,9.10
2020,12,09,12,50,9.20
2020,12,09,12,51,9.20
2020,12,09,12,52,9.20
2020,12,09,12,53,9.20
2020,12,09,12,54,9.20
2020,12,09,12,55,9.10
2020,12,09,12,56,9.10
2020,12,09,12,57,9.00
2020,12,09,12,58,9.00
2020,12,09,12,59,8.90
2020,12,09,13,00,8.90
2020,12,09,13,01,8.90
2020,12,09,13,02,8.90
2020,12,09,13,03,8.80
2020,12,09,13,04,8.80
2020,12,09,13,05,8.80
2020,12,09,13,06,8.70
2020,12,09,13,07,8.70
2020,12,09,13,08,8.70
2020,12,09,13,09,8.70
2020,12,09,13,10,8.60
2020,12,09,13,11,8.60
2020,12,09,13,12,8.60
2020,12,09,13,13,8.60
2020,12,09,13,14,8.60
2020,12,09,13,15,8.60
2020,12,09,13,16,8.60
2020,12,09,13,17,8.60
2020,12,09,13,18,8.60
2020,12,09,13,19,8.60
2020,12,09,13,20,8.60
2020,12,09,13,21,8.60
2020,12,09,13,22,8.60
2020,12,09,13,23,8.60
2020,12,09,13,24,8.50
2020,12,09,13,25,8.50
2020,12,09,13,26,8.50
2020,12,09,13,27,8.50
2020,12,09,13,28,8.50
2020,12,09,13,29,8.60
2020,12,09,13,30,8.60
2020,12,09,13,31,8.60
2020,12,09,13,32,8.60
2020,12,09,13,33,8.60
2020,12,09,13,34,8.70
2020,12,09,13,35,8.70
2020,12,09,13,36,8.80
2020,12,09,13,37,8.80
2020,12,09,13,38,8.80
2020,12,09,13,39,8.90
2020,12,09,13,40,8.90
2020,12,09,13,41,8.90
2020,12,09,13,42,8.90
2020,12,09,13,43,9.00
2020,12,09,13,44,9.00
2020,12,09,13,45,9.00
2020,12,09,13,46,9.00
2020,12,09,13,47,9.00
2020,12,09,13,48,9.00
2020,12,09,13,49,9.00
2020,12,09,13,50,9.00
2020,12,09,13,51,9.00
2020,12,09,13,52,9.00
2020,12,09,13,53,9.00
2020,12,09,13,54,9.00
2020,12,09,13,55,9.10
2020,12,09,13,56,9.10
2020,12,09,13,57,9.10
2020,12,09,13,58,9.10
2020,12,09,13,59,9.00
2020,12,09,14,00,9.00
2020,12,09,14,01,9.00
2020,12,09,14,02,9.00
2020,12,09,14,03,9.00
2020,12,09,14,04,9.00
2020,12,09,14,05,9.10
2020,12,09,14,06,9.10
2020,12,09,14,07,9.10
2020,12,09,14,08,9.10
2020,12,09,14,09,9.10
2020,12,09,14,10,9.10
2020,12,09,14,11,9.10
2020,12,09,14,12,9.10
2020,12,09,14,13,9.10
2020,12,09,14,14,9.10
2020,12,09,14,15,9.10
2020,12,09,14,16,9.10
2020,12,09,14,17,9.10
2020,12,09,14,18,9.10
2020,12,09,14,19,9.10
2020,12,09,14,20,9.10
2020,12,09,14,21,9.10
2020,12,09,14,22,9.10
2020,12,09,14,23,9.10
2020,12,09,14,24,9.10
2020,12,09,14,25,9.10
2020,12,09,14,26,9.10
2020,12,09,14,27,9.10
2020,12,09,14,28,9.10
2020,12,09,14,29,9.20
2020,12,09,14,30,9.20
2020,12,09,14,31,9.20
2020,12,09,14,32,9.20
2020,12,09,14,33,9.20
2020,12,09,14,34,9.20
2020,12,09,14,35,9.20
2020,12,09,14,36,9.20
2020,12,09,14,37,9.20
2020,12,09,14,38,9.20
2020,12,09,14,39,9.20
2020,12,09,14,40,9.20
2020,12,09,14,41,9.20
2020,12,09,14,42,9.20
2020,12,09,14,43,9.20
2020,12,09,14,44,9.20
2020,12,09,14,45,9.10
2020,12,09,14,46,9.20
2020,12,09,14,47,9.20
2020,12,09,14,48,9.20
2020,12,09,14,49,9.20
2020,12,09,14,50,9.20
2020,12,09,14,51,9.20
2020,12,09,14,52,9.20
2020,12,09,14,53,9.20
2020,12,09,14,54,9.30
2020,12,09,14,55,9.30
2020,12,09,14,56,9.30
2020,12,09,14,57,9.30
2020,12,09,14,58,9.40
2020,12,09,14,59,9.40
2020,12,09,15,00,9.40
2020,12,09,15,01,9.40
2020,12,09,15,02,9.40
2020,12,09,15,03,9.40
2020,12,09,15,04,9.40
2020,12,09,15,05,9.30
2020,12,09,15,06,9.30
2020,12,09,15,07,9.30
2020,12,09,15,08,9.30
2020,12,09,15,09,9.20
2020,12,09,15,10,9.20
2020,12,09,15,11,9.20
2020,12,09,15,12,9.10
2020,12,09,15,13,9.10
2020,12,09,15,14,9.10
2020,12,09,15,15,9.10
2020,12,09,15,16,9.00
2020,12,09,15,17,9.00
2020,12,09,15,18,9.00
2020,12,09,15,19,8.90
2020,12,09,15,20,8.90
2020,12,09,15,21,8.80
2020,12,09,15,22,8.80
2020,12,09,15,23,8.70
2020,12,09,15,24,8.70
2020,12,09,15,25,8.70
2020,12,09,15,26,8.60
2020,12,09,15,27,8.60
2020,12,09,15,28,8.50
2020,12,09,15,29,8.50
2020,12,09,15,30,8.40
2020,12,09,15,31,8.40
2020,12,09,15,32,8.40
2020,12,09,15,33,8.30
2020,12,09,15,34,8.30
2020,12,09,15,35,8.30
2020,12,09,15,36,8.20
2020,12,09,15,37,8.20
2020,12,09,15,38,8.20
2020,12,09,15,39,8.20
2020,12,09,15,40,8.20
2020,12,09,15,41,8.10
2020,12,09,15,42,8.10
2020,12,09,15,43,8.10
2020,12,09,15,44,8.10
2020,12,09,15,45,8.00
2020,12,09,15,46,8.00
2020,12,09,15,47,8.00
2020,12,09,15,48,7.90
2020,12,09,15,49,7.90
2020,12,09,15,50,7.90
2020,12,09,15,51,7.90
2020,12,09,15,52,7.80
2020,12,09,15,53,7.80
2020,12,09,15,54,7.80
2020,12,09,15,55,7.80
2020,12,09,15,56,7.70
2020,12,09,15,57,7.70
2020,12,09,15,58,7.70
2020,12,09,15,59,7.60
2020,12,09,16,00,7.60
2020,12,09,16,01,7.60
2020,12,09,16,02,7.50
2020,12,09,16,03,7.50
2020,12,09,16,04,7.50
2020,12,09,16,05,7.40
2020,12,09,16,06,7.40
2020,12,09,16,07,7.40
2020,12,09,16,08,7.40
2020,12,09,16,09,7.30
2020,12,09,16,10,7.30
2020,12,09,16,11,7.30
2020,12,09,16,12,7.30
2020,12,09,16,13,7.30
2020,12,09,16,14,7.20
2020,12,09,16,15,7.20
2020,12,09,16,16,7.20
2020,12,09,16,17,7.10
2020,12,09,16,18,7.10
2020,12,09,16,19,7.10
2020,12,09,16,20,7.10
2020,12,09,16,21,7.00
2020,12,09,16,22,7.00
2020,12,09,16,23,7.00
2020,12,09,16,24,6.90
2020,12,09,16,25,6.90
2020,12,09,16,26,6.90
2020,12,09,16,27,6.90
2020,12,09,16,28,6.80
2020,12,09,16,29,6.80
2020,12,09,16,30,6.80
2020,12,09,16,31,6.80
2020,12,09,16,32,6.80
2020,12,09,16,33,6.70
2020,12,09,16,34,6.70
2020,12,09,16,35,6.70
2020,12,09,16,36,6.70
2020,12,09,16,37,6.70
2020,12,09,16,38,6.70
2020,12,09,16,39,6.70
2020,12,09,16,40,6.70
2020,12,09,16,41,6.80
2020,12,09,16,42,6.80
2020,12,09,16,43,6.80
2020,12,09,16,44,6.80
2020,12,09,16,45,6.70
2020,12,09,16,46,6.70
2020,12,09,16,47,6.70
2020,12,09,16,48,6.70
2020,12,09,16,49,6.60
2020,12,09,16,50,6.60
2020,12,09,16,51,6.50
2020,12,09,16,52,6.40
2020,12,09,16,53,6.40
2020,12,09,16,54,6.30
2020,12,09,16,55,6.30
2020,12,09,16,56,6.20
2020,12,09,16,57,6.20
2020,12,09,16,58,6.20
2020,12,09,16,59,6.10
2020,12,09,17,00,6.10
2020,12,09,17,01,6.10
2020,12,09,17,02,6.00
2020,12,09,17,03,6.00
2020,12,09,17,04,6.00
2020,12,09,17,05,5.90
2020,12,09,17,06,5.90
2020,12,09,17,07,5.80
2020,12,09,17,08,5.80
2020,12,09,17,09,5.80
2020,12,09,17,10,5.70
2020,12,09,17,11,5.70
2020,12,09,17,12,5.70
2020,12,09,17,13,5.60
2020,12,09,17,14,5.60
2020,12,09,17,15,5.50
2020,12,09,17,16,5.40
2020,12,09,17,17,5.40
2020,12,09,17,18,5.40
2020,12,09,17,19,5.40
2020,12,09,17,20,5.30
2020,12,09,17,21,5.30
2020,12,09,17,22,5.30
2020,12,09,17,23,5.20
2020,12,09,17,24,5.20
2020,12,09,17,25,5.20
2020,12,09,17,26,5.20
2020,12,09,17,27,5.20
2020,12,09,17,28,5.20
2020,12,09,17,29,5.10
2020,12,09,17,30,5.10
2020,12,09,17,31,5.10
2020,12,09,17,32,5.10
2020,12,09,17,33,5.10
2020,12,09,17,34,5.10
2020,12,09,17,35,5.10
2020,12,09,17,36,5.10
2020,12,09,17,37,5.00
2020,12,09,17,38,4.90
2020,12,09,17,39,4.90
2020,12,09,17,40,4.90
2020,12,09,17,41,4.80
2020,12,09,17,42,4.80
2020,12,09,17,43,4.80
2020,12,09,17,44,4.70
2020,12,09,17,45,4.70
2020,12,09,17,46,4.70
2020,12,09,17,47,4.70
2020,12,09,17,48,4.60
2020,12,09,17,49,4.60
2020,12,09,17,50,4.60
2020,12,09,17,51,4.60
2020,12,09,17,52,4.60
2020,12,09,17,53,4.50
2020,12,09,17,54,4.50
2020,12,09,17,55,4.50
2020,12,09,17,56,4.50
2020,12,09,17,57,4.50
2020,12,09,17,58,4.50
2020,12,09,17,59,4.40
2020,12,09,18,00,4.40
2020,12,09,18,01,4.40
2020,12,09,18,02,4.40
2020,12,09,18,03,4.40
2020,12,09,18,04,4.40
2020,12,09,18,05,4.40
2020,12,09,18,06,4.40
2020,12,09,18,07,4.40
2020,12,09,18,08,4.30
2020,12,09,18,09,4.30
2020,12,09,18,10,4.30
2020,12,09,18,11,4.30
2020,12,09,18,12,4.20
2020,12,09,18,13,4.20
2020,12,09,18,14,4.20
2020,12,09,18,15,4.10
2020,12,09,18,16,4.10
2020,12,09,18,17,4.10
2020,12,09,18,18,4.10
2020,12,09,18,19,4.10
2020,12,09,18,20,4.10
2020,12,09,18,21,4.10
2020,12,09,18,22,4.10
2020,12,09,18,23,4.00
2020,12,09,18,24,4.00
2020,12,09,18,25,4.00
2020,12,09,18,26,3.90
2020,12,09,18,27,3.90
2020,12,09,18,28,3.80
2020,12,09,18,29,3.80
2020,12,09,18,30,3.80
2020,12,09,18,31,3.80
2020,12,09,18,32,3.80
2020,12,09,18,33,3.80
2020,12,09,18,34,3.80
2020,12,09,18,35,3.80
2020,12,09,18,36,3.80
2020,12,09,18,37,3.80
2020,12,09,18,38,3.80
2020,12,09,18,39,3.80
2020,12,09,18,40,3.80
2020,12,09,18,41,3.70
2020,12,09,18,42,3.70
2020,12,09,18,43,3.80
2020,12,09,18,44,3.80
2020,12,09,18,45,3.80
2020,12,09,18,46,3.70
2020,12,09,18,47,3.70
2020,12,09,18,48,3.70
2020,12,09,18,49,3.70
2020,12,09,18,50,3.70
2020,12,09,18,51,3.60
2020,12,09,18,52,3.60
2020,12,09,18,53,3.60
2020,12,09,18,54,3.50
2020,12,09,18,55,3.50
2020,12,09,18,56,3.50
2020,12,09,18,57,3.50
2020,12,09,18,58,3.50
2020,12,09,18,59,3.50
2020,12,09,19,00,3.50
2020,12,09,19,01,3.60
2020,12,09,19,02,3.60
2020,12,09,19,03,3.60
2020,12,09,19,04,3.60
2020,12,09,19,05,3.70
2020,12,09,19,06,3.70
2020,12,09,19,07,3.70
2020,12,09,19,08,3.60
2020,12,09,19,09,3.60
2020,12,09,19,10,3.50
2020,12,09,19,11,3.50
2020,12,09,19,12,3.40
2020,12,09,19,13,3.40
2020,12,09,19,14,3.40
2020,12,09,19,15,3.40
2020,12,09,19,16,3.30
2020,12,09,19,17,3.30
2020,12,09,19,18,3.30
2020,12,09,19,19,3.20
2020,12,09,19,20,3.20
2020,12,09,19,21,3.20
2020,12,09,19,22,3.20
2020,12,09,19,23,3.20
2020,12,09,19,24,3.10
2020,12,09,19,25,3.10
2020,12,09,19,26,3.10
2020,12,09,19,27,3.10
2020,12,09,19,28,3.10
2020,12,09,19,29,3.10
2020,12,09,19,30,3.10
2020,12,09,19,31,3.10
2020,12,09,19,32,3.00
2020,12,09,19,33,3.00
2020,12,09,19,34,3.00
2020,12,09,19,35,3.00
2020,12,09,19,36,2.90
2020,12,09,19,37,2.90
2020,12,09,19,38,2.90
2020,12,09,19,39,2.90
2020,12,09,19,40,2.90
2020,12,09,19,41,2.90
2020,12,09,19,42,2.80
2020,12,09,19,43,2.80
2020,12,09,19,44,2.80
2020,12,09,19,45,2.80
2020,12,09,19,46,2.80
2020,12,09,19,47,2.80
2020,12,09,19,48,2.80
2020,12,09,19,49,2.80
2020,12,09,19,50,2.80
2020,12,09,19,51,2.70
2020,12,09,19,52,2.70
2020,12,09,19,53,2.70
2020,12,09,19,54,2.70
2020,12,09,19,55,2.70
2020,12,09,19,56,2.60
2020,12,09,19,57,2.60
2020,12,09,19,58,2.60
2020,12,09,19,59,2.60
2020,12,09,20,00,2.70
2020,12,09,20,01,2.70
2020,12,09,20,02,2.70
2020,12,09,20,03,2.70
2020,12,09,20,04,2.70
2020,12,09,20,05,2.70
2020,12,09,20,06,2.70
2020,12,09,20,07,2.60
2020,12,09,20,08,2.60
2020,12,09,20,09,2.50
2020,12,09,20,10,2.50
2020,12,09,20,11,2.50
2020,12,09,20,12,2.50
2020,12,09,20,13,2.50
2020,12,09,20,14,2.40
2020,12,09,20,15,2.40
2020,12,09,20,16,2.40
2020,12,09,20,17,2.40
2020,12,09,20,18,2.40
2020,12,09,20,19,2.30
2020,12,09,20,20,2.30
2020,12,09,20,21,2.40
2020,12,09,20,22,2.40
2020,12,09,20,23,2.40
2020,12,09,20,24,2.40
2020,12,09,20,25,2.50
2020,12,09,20,26,2.50
2020,12,09,20,27,2.60
2020,12,09,20,28,2.60
2020,12,09,20,29,2.60
2020,12,09,20,30,2.60
2020,12,09,20,31,2.60
2020,12,09,20,32,2.60
2020,12,09,20,33,2.60
2020,12,09,20,34,2.60
2020,12,09,20,35,2.60
2020,12,09,20,36,2.50
2020,12,09,20,37,2.50
2020,12,09,20,38,2.50
2020,12,09,20,39,2.50
2020,12,09,20,40,2.40
2020,12,09,20,41,2.40
2020,12,09,20,42,2.40
2020,12,09,20,43,2.30
2020,12,09,20,44,2.30
2020,12,09,20,45,2.30
2020,12,09,20,46,2.30
2020,12,09,20,47,2.20
2020,12,09,20,48,2.20
2020,12,09,20,49,2.20
2020,12,09,20,50,2.20
2020,12,09,20,51,2.20
2020,12,09,20,52,2.20
2020,12,09,20,53,2.20
2020,12,09,20,54,2.20
2020,12,09,20,55,2.20
2020,12,09,20,56,2.20
2020,12,09,20,57,2.20
2020,12,09,20,58,2.20
2020,12,09,20,59,2.20
2020,12,09,21,00,2.20
2020,12,09,21,01,2.20
2020,12,09,21,02,2.20
2020,12,09,21,03,2.20
2020,12,09,21,04,2.20
2020,12,09,21,05,2.20
2020,12,09,21,06,2.20
2020,12,09,21,07,2.20
2020,12,09,21,08,2.20
2020,12,09,21,09,2.20
2020,12,09,21,10,2.20
2020,12,09,21,11,2.10
2020,12,09,21,12,2.10
2020,12,09,21,13,2.10
2020,12,09,21,14,2.10
2020,12,09,21,15,2.00
2020,12,09,21,16,2.00
2020,12,09,21,17,1.90
2020,12,09,21,18,1.90
2020,12,09,21,19,1.80
2020,12,09,21,20,1.80
2020,12,09,21,21,1.80
2020,12,09,21,22,1.80
2020,12,09,21,23,1.80
2020,12,09,21,24,1.80
2020,12,09,21,25,1.80
2020,12,09,21,26,1.80
2020,12,09,21,27,1.80
2020,12,09,21,28,1.80
2020,12,09,21,29,1.80
2020,12,09,21,30,1.80
2020,12,09,21,31,1.80
2020,12,09,21,32,1.80
2020,12,09,21,33,1.80
2020,12,09,21,34,1.80
2020,12,09,21,35,1.80
2020,12,09,21,36,1.80
2020,12,09,21,37,1.80
2020,12,09,21,38,1.80
2020,12,09,21,39,1.80
2020,12,09,21,40,1.80
2020,12,09,21,41,1.80
2020,12,09,21,42,1.80
2020,12,09,21,43,1.80
2020,12,09,21,44,1.80
2020,12,09,21,45,1.80
2020,12,09,21,46,1.80
2020,12,09,21,47,1.80
2020,12,09,21,48,1.80
2020,12,09,21,49,1.80
2020,12,09,21,50,1.80
2020,12,09,21,51,1.90
2020,12,09,21,52,1.90
2020,12,09,21,53,1.90
2020,12,09,21,54,1.90
2020,12,09,21,55,2.00
2020,12,09,21,56,2.00
2020,12,09,21,57,2.00
2020,12,09,21,58,2.10
2020,12,09,21,59,2.10
2020,12,09,22,00,2.10
2020,12,09,22,01,2.10
2020,12,09,22,02,2.10
2020,12,09,22,03,2.10
2020,12,09,22,04,2.20
2020,12,09,22,05,2.20
2020,12,09,22,06,2.20
2020,12,09,22,07,2.30
2020,12,09,22,08,2.30
2020,12,09,22,09,2.30
2020,12,09,22,10,2.40
2020,12,09,22,11,2.40
2020,12,09,22,12,2.40
2020,12,09,22,13,2.50
2020,12,09,22,14,2.50
2020,12,09,22,15,2.50
2020,12,09,22,16,2.60
2020,12,09,22,17,2.60
2020,12,09,22,18,2.60
2020,12,09,22,19,2.70
2020,12,09,22,20,2.70
2020,12,09,22,21,2.70
2020,12,09,22,22,2.80
2020,12,09,22,23,2.80
2020,12,09,22,24,2.80
2020,12,09,22,25,2.80
2020,12,09,22,26,2.80
2020,12,09,22,27,2.80
2020,12,09,22,28,2.80
2020,12,09,22,29,2.80
2020,12,09,22,30,2.90
2020,12,09,22,31,2.90
2020,12,09,22,32,2.90
2020,12,09,22,33,2.90
2020,12,09,22,34,3.00
2020,12,09,22,35,3.00
2020,12,09,22,36,3.00
2020,12,09,22,37,3.00
2020,12,09,22,38,3.00
2020,12,09,22,39,3.00
2020,12,09,22,40,3.00
2020,12,09,22,41,3.00
2020,12,09,22,42,3.00
2020,12,09,22,43,3.00
2020,12,09,22,44,3.10
2020,12,09,22,45,3.10
2020,12,09,22,46,3.10
2020,12,09,22,47,3.10
2020,12,09,22,48,3.10
2020,12,09,22,49,3.10
2020,12,09,22,50,3.00
2020,12,09,22,51,3.00
2020,12,09,22,52,3.00
2020,12,09,22,53,3.00
2020,12,09,22,54,2.90
2020,12,09,22,55,2.90
2020,12,09,22,56,2.90
2020,12,09,22,57,2.90
2020,12,09,22,58,2.90
2020,12,09,22,59,2.90
2020,12,09,23,00,2.90
2020,12,09,23,01,2.90
2020,12,09,23,02,2.90
2020,12,09,23,03,2.90
2020,12,09,23,04,3.00
2020,12,09,23,05,3.00
2020,12,09,23,06,3.00
2020,12,09,23,07,3.00
2020,12,09,23,08,3.00
2020,12,09,23,09,3.00
2020,12,09,23,10,3.10
2020,12,09,23,11,3.10
2020,12,09,23,12,3.10
2020,12,09,23,13,3.10
2020,12,09,23,14,3.10
2020,12,09,23,15,3.10
2020,12,09,23,16,3.20
2020,12,09,23,17,3.20
2020,12,09,23,18,3.20
2020,12,09,23,19,3.20
2020,12,09,23,20,3.20
2020,12,09,23,21,3.20
2020,12,09,23,22,3.20
2020,12,09,23,23,3.20
2020,12,09,23,24,3.20
2020,12,09,23,25,3.20
2020,12,09,23,26,3.20
2020,12,09,23,27,3.20
2020,12,09,23,28,3.20
2020,12,09,23,29,3.20
2020,12,09,23,30,3.20
2020,12,09,23,31,3.20
2020,12,09,23,32,3.20
2020,12,09,23,33,3.20
2020,12,09,23,34,3.20
2020,12,09,23,35,3.20
2020,12,09,23,36,3.20
2020,12,09,23,37,3.20
2020,12,09,23,38,3.20
2020,12,09,23,39,3.20
2020,12,09,23,40,3.20
2020,12,09,23,41,3.20
2020,12,09,23,42,3.20
2020,12,09,23,43,3.20
2020,12,09,23,44,3.20
2020,12,09,23,45,3.20
2020,12,09,23,46,3.20
2020,12,09,23,47,3.30
2020,12,09,23,48,3.30
2020,12,09,23,49,3.30
2020,12,09,23,50,3.30
2020,12,09,23,51,3.30
2020,12,09,23,52,3.30
2020,12,09,23,53,3.30
2020,12,09,23,54,3.30
2020,12,09,23,55,3.40
2020,12,09,23,56,3.40
2020,12,09,23,57,3.40
2020,12,09,23,58,3.40
2020,12,09,23,59,3.40
